Flag for U.S.A. Weather past 2 weeks in Berkeley, California, U.S.A.

Now
70 °F

Scattered clouds.


Feels Like: 76 °F
Forecast: 62 / 71 °F
Wind: 12 mph from West

Location: Metro Oakland International Airport

Current Time: Aug 1, 2015 at 11:10:27 AM

Latest Report: Aug 1, 2015 at 10:53 AM


Visibility: 10 mi

Pressure: 30.02 "Hg

Humidity: 61%

Dew point: 56 °F

Location of BerkeleyLocation

Historic Weather in Berkeley — Graph

°F

Berkeley temperature yesterday

Maximum temperature yesterday: 70 °F (at 2:53 PM)
Minimum temperature yesterday: 61 °F (at 2:53 AM)
Average temperature yesterday: 65 °F

Past Weeks' High & Low Weather Summary

 TemperatureHumidityPressure
High86 °F (Jul 19, 2:53 PM)90% (Jul 21, 5:53 AM)30.13 "Hg (Jul 21, 5:53 AM)
Low56 °F (Jul 28, 5:53 AM)35% (Jul 19, 2:53 PM)29.78 "Hg (Jul 17, 7:53 PM)
Average66 °F70%29.96 "Hg
* Reported Jul 17 9:53 AM — Aug 1 9:53 AM, Berkeley, Weather by CustomWeather, © 2015

Note: Actual official high and low records may vary slightly from our data, if they occured in-between our weather recording intervals... More about our weather records

Advertising

Berkeley weather history for previous 24 hours

 ConditionsComfort  
Time TempWeatherWind HumidityBarometerVisibility
9:53 AM
Sat, Aug 1
68 °FBroken clouds.8 mph65%30.03 "Hg10 mi
8:53 AM67 °FBroken clouds.12 mph68%30.03 "Hg10 mi
7:53 AM65 °FPartly sunny.9 mph76%30.02 "Hg10 mi
6:53 AM64 °FPassing clouds.9 mph75%30.01 "Hg10 mi
5:53 AM65 °FOvercast.10 mph73%29.99 "Hg10 mi
4:53 AM65 °FOvercast.7 mph76%29.98 "Hg10 mi
3:53 AM64 °FPassing clouds.7 mph78%29.97 "Hg10 mi
2:53 AM63 °FPassing clouds.8 mph78%29.97 "Hg10 mi
1:53 AM63 °FPassing clouds.7 mph78%29.98 "Hg10 mi
12:53 AM64 °FPassing clouds.9 mph75%29.98 "Hg10 mi
11:53 PM
Fri, Jul 31
65 °FPassing clouds.9 mph76%29.99 "Hg10 mi
10:53 PM67 °FPassing clouds.9 mph71%29.99 "Hg10 mi
9:53 PM65 °FOvercast.12 mph78%30.00 "Hg10 mi
8:53 PM65 °FPartly sunny.15 mph78%29.99 "Hg10 mi
7:53 PM66 °FPartly sunny.17 mph75%29.99 "Hg10 mi
6:53 PM66 °FOvercast.16 mph75%29.97 "Hg10 mi
5:53 PM68 °FBroken clouds.17 mph70%29.97 "Hg10 mi
4:53 PM70 °FBroken clouds.17 mph68%29.98 "Hg10 mi
3:53 PM69 °FScattered clouds.18 mph68%29.99 "Hg10 mi
2:53 PM70 °FScattered clouds.18 mph66%30.01 "Hg10 mi
1:53 PM69 °FScattered clouds.12 mph68%30.02 "Hg10 mi
12:53 PM68 °FPartly sunny.13 mph68%30.02 "Hg10 mi
11:53 AM66 °FPartly sunny.12 mph75%30.02 "Hg10 mi
Weather by CustomWeather, © 2015

See weather overviewHow to use our weather pages